TimePST,TemperatureF,Dew PointF,Humidity,Sea Level PressureIn,VisibilityMPH,Wind Direction,Wind SpeedMPH,Gust SpeedMPH,PrecipitationIn,Events,Conditions,WindDirDegrees,DateUTC
12:52 AM,51.1,50.0,96,29.84,-9999.0,SW,6.9,-,0.01,,Unknown,230,2013-11-21 08:52:00
1:52 AM,51.1,50.0,96,29.83,-9999.0,SSW,4.6,-,0.02,,Unknown,210,2013-11-21 09:52:00
2:52 AM,51.1,50.0,96,29.82,-9999.0,SSW,5.8,-,0.03,,Unknown,210,2013-11-21 10:52:00
3:52 AM,52.0,51.1,97,29.81,-9999.0,SW,5.8,-,0.02,,Unknown,220,2013-11-21 11:52:00
4:52 AM,52.0,51.1,97,29.82,-9999.0,SSW,3.5,-,0.02,,Unknown,210,2013-11-21 12:52:00
5:52 AM,53.1,52.0,96,29.83,-9999.0,SW,9.2,-,N/A,,Unknown,220,2013-11-21 13:52:00
6:52 AM,53.1,52.0,96,29.83,-9999.0,SW,6.9,-,0.01,,Unknown,220,2013-11-21 14:52:00
7:52 AM,53.1,52.0,96,29.85,-9999.0,SW,11.5,-,N/A,,Unknown,220,2013-11-21 15:52:00
8:52 AM,54.0,52.0,93,29.85,-9999.0,SSW,9.2,-,0.01,,Unknown,210,2013-11-21 16:52:00
9:52 AM,55.0,52.0,89,29.85,-9999.0,SW,10.4,-,N/A,,Unknown,230,2013-11-21 17:52:00
10:52 AM,54.0,51.1,90,29.83,-9999.0,WSW,10.4,-,0.03,,Unknown,240,2013-11-21 18:52:00
11:52 AM,55.0,52.0,89,29.82,-9999.0,WSW,12.7,-,0.01,,Unknown,240,2013-11-21 19:52:00
12:52 PM,55.9,52.0,87,29.80,-9999.0,WSW,13.8,-,0.01,,Unknown,240,2013-11-21 20:52:00
1:52 PM,55.0,51.1,86,29.81,-9999.0,WSW,10.4,-,N/A,,Unknown,240,2013-11-21 21:52:00
2:52 PM,54.0,51.1,90,29.81,-9999.0,WSW,10.4,-,N/A,,Unknown,240,2013-11-21 22:52:00
3:52 PM,53.1,50.0,89,29.81,-9999.0,WSW,11.5,-,N/A,,Unknown,240,2013-11-21 23:52:00
4:52 PM,52.0,51.1,97,29.79,-9999.0,WSW,8.1,-,N/A,,Unknown,240,2013-11-22 00:52:00
5:52 PM,52.0,50.0,93,29.80,-9999.0,WSW,9.2,-,N/A,,Unknown,250,2013-11-22 01:52:00
6:52 PM,51.1,48.9,92,29.81,-9999.0,WSW,6.9,-,N/A,,Unknown,250,2013-11-22 02:52:00
7:52 PM,51.1,48.9,92,29.81,-9999.0,SW,5.8,-,N/A,,Unknown,230,2013-11-22 03:52:00
8:52 PM,50.0,48.9,96,29.81,-9999.0,Calm,Calm,-,0.01,,Unknown,0,2013-11-22 04:52:00
9:52 PM,51.1,48.9,92,29.80,-9999.0,Calm,Calm,-,0.01,,Unknown,0,2013-11-22 05:52:00
10:52 PM,50.0,48.9,96,29.80,-9999.0,South,4.6,-,0.08,,Unknown,170,2013-11-22 06:52:00
11:52 PM,50.0,48.9,96,29.79,-9999.0,Calm,Calm,-,N/A,,Unknown,0,2013-11-22 07:52:00